�������l�o���
Date,Time,MP-1(��Sv/h),MP-2(��Sv/h),MP-3(��Sv/h),MP-4(��Sv/h),MP-5(��Sv/h),MP-6(��Sv/h),MP-7(��Sv/h),MP-8(��Sv/h),����,����(m/s),���J
2022/04/05,00:00,0.552,0.814,0.527,0.999,0.698,0.340,0.585,0.557,�k�k��,8.1,�L
2022/04/05,00:10,0.551,0.810,0.527,0.998,0.698,0.338,0.586,0.557,�k�k��,9.1,�L
2022/04/05,00:20,0.553,0.810,0.528,0.998,0.697,0.339,0.587,0.556,�k�k��,10.2,�L
2022/04/05,00:30,0.550,0.807,0.527,0.996,0.696,0.339,0.583,0.558,�k�k��,9.1,�L
2022/04/05,00:40,0.551,0.808,0.527,0.997,0.696,0.339,0.585,0.557,�k�k��,7.9,�L
2022/04/05,00:50,0.550,0.807,0.526,0.993,0.696,0.339,0.583,0.556,�k�k��,9.7,�L
2022/04/05,01:00,0.550,0.806,0.527,0.992,0.697,0.340,0.585,0.555,�k�k��,8.1,�L
2022/04/05,01:10,0.550,0.806,0.528,0.994,0.694,0.338,0.583,0.556,�k�k��,8.0,�L
2022/04/05,01:20,0.549,0.808,0.528,0.995,0.693,0.339,0.585,0.556,�k�k��,8.7,�L
2022/04/05,01:30,0.548,0.805,0.526,0.993,0.694,0.338,0.583,0.556,�k�k��,7.2,�L
2022/04/05,01:40,0.548,0.806,0.526,0.989,0.694,0.340,0.584,0.555,�k�k��,8.6,�L
2022/04/05,01:50,0.550,0.806,0.526,0.990,0.691,0.336,0.584,0.556,�k�k��,8.6,�L
2022/04/05,02:00,0.547,0.809,0.528,0.994,0.693,0.339,0.585,0.555,�k�k��,9.0,�L
2022/04/05,02:10,0.552,0.809,0.527,0.994,0.694,0.339,0.583,0.555,�k�k��,9.6,�L
2022/04/05,02:20,0.550,0.808,0.526,0.995,0.694,0.339,0.586,0.556,�k�k��,8.5,�L
2022/04/05,02:30,0.551,0.808,0.528,0.993,0.695,0.339,0.584,0.556,�k�k��,9.1,�L
2022/04/05,02:40,0.549,0.805,0.525,0.991,0.692,0.338,0.584,0.555,�k�k��,9.1,�L
2022/04/05,02:50,0.549,0.806,0.525,0.991,0.690,0.338,0.583,0.555,�k�k��,9.2,�L
2022/04/05,03:00,0.549,0.806,0.526,0.989,0.692,0.338,0.584,0.556,�k�k��,9.2,�L
2022/04/05,03:10,0.549,0.806,0.527,0.989,0.691,0.340,0.582,0.556,�k�k��,9.1,�L
2022/04/05,03:20,0.550,0.808,0.525,0.991,0.692,0.338,0.583,0.556,�k�k��,8.4,�L
2022/04/05,03:30,0.550,0.808,0.526,0.991,0.693,0.340,0.584,0.556,�k�k��,8.4,�L
2022/04/05,03:40,0.549,0.808,0.527,0.991,0.695,0.338,0.584,0.556,�k�k��,9.8,�L
2022/04/05,03:50,0.551,0.808,0.527,0.992,0.695,0.340,0.584,0.556,�k�k��,8.5,�L
2022/04/05,04:00,0.550,0.809,0.526,0.995,0.693,0.339,0.584,0.555,�k�k��,11.4,�L
2022/04/05,04:10,0.548,0.808,0.526,0.991,0.695,0.339,0.583,0.555,�k�k��,8.6,�L
2022/04/05,04:20,0.553,0.808,0.527,0.991,0.694,0.338,0.583,0.557,�k�k��,8.2,�L
2022/04/05,04:30,0.551,0.808,0.528,0.993,0.693,0.339,0.584,0.557,�k�k��,7.8,�L
2022/04/05,04:40,0.552,0.808,0.526,0.992,0.693,0.340,0.583,0.554,�k�k��,7.9,�L
2022/04/05,04:50,0.551,0.807,0.528,0.990,0.692,0.339,0.583,0.555,�k�k��,8.6,�L
2022/04/05,05:00,0.550,0.807,0.527,0.991,0.692,0.338,0.583,0.555,�k�k��,7.9,�L
2022/04/05,05:10,0.551,0.808,0.527,0.990,0.691,0.338,0.581,0.556,�k�k��,8.5,�L
2022/04/05,05:20,0.550,0.806,0.527,0.992,0.691,0.339,0.583,0.555,�k�k��,8.8,�L
2022/04/05,05:30,0.550,0.808,0.528,0.992,0.692,0.339,0.585,0.557,�k�k��,8.7,�L
2022/04/05,05:40,0.550,0.808,0.527,0.992,0.693,0.339,0.584,0.556,�k�k��,8.4,�L
2022/04/05,05:50,0.551,0.807,0.527,0.992,0.692,0.339,0.583,0.555,�k�k��,8.2,�L
2022/04/05,06:00,0.552,0.809,0.527,0.993,0.693,0.339,0.584,0.555,�k�k��,8.8,�L
2022/04/05,06:10,0.551,0.808,0.527,0.993,0.693,0.339,0.585,0.556,�k�k��,7.6,�L
2022/04/05,06:20,0.552,0.808,0.526,0.993,0.692,0.340,0.583,0.555,�k�k��,8.4,�L
2022/04/05,06:30,0.549,0.809,0.527,0.996,0.693,0.339,0.583,0.556,�k�k��,10.0,�L
2022/04/05,06:40,0.553,0.809,0.528,0.989,0.693,0.339,0.583,0.555,�k�k��,7.9,�L
2022/04/05,06:50,0.551,0.810,0.526,0.993,0.693,0.339,0.582,0.555,�k�k��,9.2,�L
2022/04/05,07:00,0.554,0.811,0.527,0.993,0.694,0.340,0.583,0.556,�k�k��,7.8,�L
2022/04/05,07:10,0.550,0.812,0.528,0.996,0.695,0.339,0.583,0.555,�k�k��,7.6,�L
2022/04/05,07:20,0.554,0.810,0.528,0.996,0.695,0.338,0.582,0.557,�k�k��,8.4,��
2022/04/05,07:30,0.552,0.809,0.527,0.996,0.696,0.338,0.585,0.556,�k�k��,9.4,��
2022/04/05,07:40,0.551,0.810,0.528,0.997,0.696,0.339,0.584,0.555,�k�k��,8.2,��
2022/04/05,07:50,0.552,0.811,0.527,0.998,0.695,0.338,0.585,0.557,�k,8.2,��
2022/04/05,08:00,0.554,0.812,0.528,0.999,0.697,0.338,0.585,0.555,�k�k��,8.6,��
2022/04/05,08:10,0.553,0.814,0.533,0.998,0.697,0.339,0.585,0.554,�k�k��,8.2,��
2022/04/05,08:20,0.553,0.812,0.528,0.999,0.698,0.338,0.584,0.556,�k,7.8,��
2022/04/05,08:30,0.555,0.813,0.529,1.000,0.698,0.338,0.586,0.555,�k,7.4,��
2022/04/05,08:40,0.555,0.812,0.530,0.999,0.700,0.337,0.585,0.557,�k,6.7,��
2022/04/05,08:50,0.555,0.813,0.528,1.000,0.699,0.338,0.584,0.556,�k,6.7,��
2022/04/05,09:00,0.555,0.812,0.531,1.001,0.700,0.339,0.587,0.557,�k�k��,7.4,��
2022/04/05,09:10,0.555,0.816,0.528,1.000,0.700,0.338,0.585,0.557,�k�k��,7.4,��
2022/04/05,09:20,0.556,0.815,0.529,1.003,0.698,0.340,0.584,0.556,�k,6.2,��
2022/04/05,09:30,0.554,0.815,0.530,1.003,0.700,0.338,0.586,0.557,�k�k��,6.7,��
2022/04/05,09:40,0.557,0.815,0.530,1.003,0.702,0.338,0.585,0.558,�k�k��,7.6,��
2022/04/05,09:50,0.556,0.817,0.533,1.001,0.702,0.338,0.586,0.559,�k�k��,6.8,��
2022/04/05,10:00,0.556,0.816,0.529,1.004,0.703,0.338,0.587,0.556,�k,6.3,��
2022/04/05,10:10,0.557,0.817,0.531,1.003,0.703,0.339,0.584,0.556,�k,7.0,��
2022/04/05,10:20,0.557,0.817,0.529,1.005,0.701,0.339,0.585,0.558,�k,4.9,��
2022/04/05,10:30,0.557,0.818,0.530,1.003,0.703,0.339,0.585,0.557,�k�k��,5.8,��
2022/04/05,10:40,0.559,0.816,0.531,1.005,0.705,0.339,0.586,0.559,�k�k��,5.6,��
2022/04/05,10:50,0.559,0.818,0.532,1.006,0.701,0.339,0.586,0.559,�k,7.0,��
2022/04/05,11:00,0.559,0.819,0.531,1.006,0.702,0.339,0.586,0.558,�k,6.3,��
2022/04/05,11:10,0.558,0.816,0.531,1.009,0.703,0.339,0.586,0.559,�k,7.1,��
2022/04/05,11:20,0.560,0.819,0.532,1.008,0.703,0.341,0.586,0.557,�k,6.7,��
2022/04/05,11:30,0.559,0.817,0.534,1.007,0.702,0.339,0.587,0.556,�k,6.6,��
2022/04/05,11:40,0.559,0.818,0.531,1.007,0.704,0.339,0.587,0.557,�k,6.7,��
2022/04/05,11:50,0.561,0.822,0.532,1.008,0.705,0.339,0.588,0.557,�k,7.7,��
2022/04/05,12:00,0.561,0.819,0.531,1.008,0.704,0.340,0.587,0.557,�k,6.7,��
2022/04/05,12:10,0.559,0.822,0.534,1.011,0.706,0.339,0.587,0.556,�k,6.5,��
2022/04/05,12:20,0.561,0.820,0.534,1.006,0.705,0.341,0.587,0.558,�k,5.0,��
2022/04/05,12:30,0.558,0.822,0.533,1.011,0.704,0.339,0.588,0.558,�k�k��,4.9,��
2022/04/05,12:40,0.561,0.822,0.533,1.010,0.705,0.340,0.588,0.556,�k,4.0,��
2022/04/05,12:50,0.559,0.819,0.532,1.011,0.704,0.339,0.588,0.557,�k,3.4,��
2022/04/05,13:00,0.561,0.823,0.534,1.011,0.706,0.340,0.588,0.559,�k,3.6,��
2022/04/05,13:10,0.560,0.822,0.534,1.010,0.706,0.340,0.588,0.558,�k,3.4,��
2022/04/05,13:20,0.561,0.821,0.536,1.012,0.707,0.341,0.588,0.559,�k,3.9,��
2022/04/05,13:30,0.561,0.822,0.535,1.013,0.707,0.340,0.586,0.557,�k�k��,4.1,��
2022/04/05,13:40,0.559,0.824,0.534,1.011,0.708,0.341,0.587,0.556,�k�k��,5.2,��
2022/04/05,13:50,0.560,0.822,0.534,1.012,0.709,0.339,0.587,0.557,�k�k��,5.5,��
2022/04/05,14:00,0.561,0.825,0.533,1.010,0.710,0.340,0.587,0.558,�k�k��,5.4,��
2022/04/05,14:10,0.562,0.823,0.535,1.011,0.710,0.340,0.589,0.558,�k�k��,5.7,��
2022/04/05,14:20,0.560,0.824,0.533,1.013,0.709,0.342,0.590,0.559,�k��,5.5,��
2022/04/05,14:30,0.560,0.823,0.533,1.013,0.710,0.340,0.589,0.559,�k�k��,4.9,��
2022/04/05,14:40,0.562,0.825,0.535,1.014,0.711,0.342,0.591,0.558,�k��,3.6,��
2022/04/05,14:50,0.561,0.826,0.534,1.013,0.711,0.341,0.589,0.558,�k��,4.5,��
2022/04/05,15:00,0.560,0.827,0.533,1.011,0.710,0.340,0.590,0.557,�k��,4.2,��
2022/04/05,15:10,0.560,0.827,0.535,1.015,0.711,0.341,0.589,0.559,�k��,3.2,��
2022/04/05,15:20,0.562,0.827,0.533,1.013,0.712,0.340,0.590,0.559,�k��,3.7,��
2022/04/05,15:30,0.562,0.828,0.535,1.013,0.711,0.342,0.590,0.559,�k��,3.5,��
2022/04/05,15:40,0.562,0.830,0.535,1.013,0.712,0.340,0.589,0.559,�k��,4.1,��
2022/04/05,15:50,0.561,0.829,0.535,1.014,0.712,0.341,0.589,0.558,�k��,4.5,��
2022/04/05,16:00,0.562,0.831,0.536,1.011,0.712,0.340,0.589,0.557,�k��,3.2,��
2022/04/05,16:10,0.563,0.828,0.533,1.010,0.714,0.341,0.590,0.561,���k��,3.3,��
2022/04/05,16:20,0.559,0.830,0.535,1.011,0.712,0.341,0.591,0.561,���k��,3.3,��
2022/04/05,16:30,0.563,0.829,0.534,1.011,0.714,0.341,0.588,0.560,�k��,3.2,��
2022/04/05,16:40,0.562,0.829,0.536,1.011,0.712,0.342,0.592,0.561,���k��,3.7,��
2022/04/05,16:50,0.561,0.831,0.535,1.013,0.712,0.342,0.589,0.562,�k��,2.9,��
2022/04/05,17:00,0.563,0.830,0.536,1.013,0.712,0.342,0.588,0.563,�k��,2.3,��
2022/04/05,17:10,0.562,0.832,0.536,1.014,0.714,0.342,0.589,0.561,�k��,1.4,��
2022/04/05,17:20,0.562,0.832,0.536,1.015,0.712,0.342,0.590,0.562,���k��,1.9,��
2022/04/05,17:30,0.564,0.830,0.536,1.014,0.712,0.342,0.590,0.562,���k��,1.4,��
2022/04/05,17:40,0.564,0.831,0.537,1.015,0.711,0.342,0.590,0.562,-,CALM,��
2022/04/05,17:50,0.563,0.832,0.537,1.015,0.712,0.341,0.590,0.564,��쓌,1.1,��
2022/04/05,18:00,0.565,0.833,0.537,1.013,0.714,0.342,0.590,0.561,��쐼,0.9,��
2022/04/05,18:10,0.563,0.832,0.538,1.014,0.714,0.341,0.591,0.563,�쐼,1.4,��
2022/04/05,18:20,0.564,0.832,0.538,1.015,0.716,0.342,0.592,0.560,��,0.8,��
2022/04/05,18:30,0.566,0.830,0.538,1.016,0.714,0.341,0.592,0.561,�쓌,1.1,��
2022/04/05,18:40,0.564,0.833,0.537,1.016,0.715,0.341,0.591,0.561,�쓌,1.2,��
2022/04/05,18:50,0.563,0.834,0.537,1.017,0.714,0.341,0.591,0.562,�쓌,1.2,��
2022/04/05,19:00,0.564,0.831,0.537,1.015,0.715,0.341,0.591,0.560,�쓌,1.2,��
2022/04/05,19:10,0.564,0.831,0.537,1.015,0.714,0.341,0.591,0.561,�쓌,2.2,��
2022/04/05,19:20,0.564,0.830,0.536,1.015,0.716,0.341,0.592,0.561,�쓌,1.7,��
2022/04/05,19:30,0.563,0.832,0.538,1.017,0.717,0.340,0.592,0.562,��쓌,1.7,��
2022/04/05,19:40,0.564,0.834,0.539,1.016,0.715,0.343,0.592,0.561,��쓌,1.5,��
2022/04/05,19:50,0.563,0.832,0.538,1.016,0.717,0.341,0.592,0.560,��쓌,1.7,��
2022/04/05,20:00,0.564,0.833,0.537,1.016,0.715,0.341,0.592,0.560,��쓌,2.0,��
2022/04/05,20:10,0.563,0.831,0.536,1.017,0.715,0.342,0.593,0.561,��,1.7,��
2022/04/05,20:20,0.566,0.834,0.537,1.015,0.717,0.342,0.592,0.561,��,2.3,��
2022/04/05,20:30,0.565,0.833,0.536,1.016,0.715,0.339,0.591,0.560,��,2.6,��
2022/04/05,20:40,0.562,0.833,0.538,1.017,0.717,0.342,0.591,0.561,��,2.9,��
2022/04/05,20:50,0.564,0.832,0.536,1.017,0.718,0.342,0.591,0.560,��,3.2,��
2022/04/05,21:00,0.564,0.832,0.537,1.016,0.716,0.341,0.591,0.561,��,3.5,��
2022/04/05,21:10,0.563,0.833,0.536,1.015,0.714,0.343,0.593,0.560,��,3.1,��
2022/04/05,21:20,0.565,0.832,0.536,1.017,0.716,0.342,0.592,0.561,��,4.0,��
2022/04/05,21:30,0.563,0.834,0.537,1.018,0.713,0.341,0.592,0.560,��,3.8,��
2022/04/05,21:40,0.564,0.832,0.537,1.015,0.715,0.341,0.592,0.561,��,3.1,��
2022/04/05,21:50,0.565,0.833,0.537,1.017,0.717,0.341,0.592,0.561,��,3.4,��
2022/04/05,22:00,0.565,0.831,0.537,1.018,0.718,0.341,0.592,0.560,��,5.0,��
2022/04/05,22:10,0.564,0.833,0.537,1.017,0.717,0.341,0.592,0.561,��,4.6,��
2022/04/05,22:20,0.564,0.832,0.537,1.017,0.715,0.342,0.592,0.560,��,5.4,��
2022/04/05,22:30,0.565,0.832,0.537,1.018,0.718,0.342,0.592,0.561,��,4.7,��
2022/04/05,22:40,0.564,0.833,0.539,1.018,0.717,0.341,0.592,0.562,��,5.1,��
2022/04/05,22:50,0.564,0.832,0.537,1.018,0.715,0.341,0.592,0.561,��쐼,4.5,��
2022/04/05,23:00,0.562,0.833,0.539,1.017,0.715,0.342,0.591,0.561,��,5.1,��
2022/04/05,23:10,0.565,0.833,0.537,1.017,0.716,0.342,0.592,0.560,��,5.4,��
2022/04/05,23:20,0.564,0.833,0.537,1.018,0.716,0.343,0.591,0.561,��,5.6,��
2022/04/05,23:30,0.563,0.831,0.539,1.017,0.718,0.343,0.591,0.562,��,5.1,��
2022/04/05,23:40,0.566,0.832,0.535,1.018,0.717,0.341,0.591,0.560,��쐼,6.0,��
2022/04/05,23:50,0.564,0.834,0.539,1.016,0.717,0.342,0.593,0.561,��쐼,5.4,��
